Time,TemperatureF,DewpointF,PressureIn,WindDirection,WindDirectionDegrees,WindSpeedMPH,WindSpeedGustMPH,Humidity,HourlyPrecipIn,Conditions,Clouds,dailyrainin,SoftwareType,DateUTC
2013-08-22 00:01:00,80.8,69.2,30.05,SE,135,0.0,4.0,68,0.00,,,0.00,Weather View 32 v70,2013-08-22 05:01:00,
2013-08-22 00:11:00,80.5,68.9,30.04,SE,136,0.0,4.0,68,0.00,,,0.00,Weather View 32 v70,2013-08-22 05:11:00,
2013-08-22 00:16:00,80.4,68.8,30.05,SE,136,0.0,4.0,68,0.00,,,0.00,Weather View 32 v70,2013-08-22 05:16:00,
2013-08-22 00:26:00,80.2,68.6,30.05,SE,135,0.0,3.0,68,0.00,,,0.00,Weather View 32 v70,2013-08-22 05:26:00,
2013-08-22 00:31:00,80.2,69.1,30.05,SE,136,0.0,3.0,69,0.00,,,0.00,Weather View 32 v70,2013-08-22 05:31:00,
2013-08-22 00:41:00,80.0,68.9,30.05,SE,136,0.0,3.0,69,0.00,,,0.00,Weather View 32 v70,2013-08-22 05:41:00,
2013-08-22 00:47:00,79.9,68.8,30.05,SE,135,0.0,3.0,69,0.00,,,0.00,Weather View 32 v70,2013-08-22 05:47:00,
2013-08-22 00:56:00,79.8,69.1,30.05,SE,135,0.0,4.0,70,0.00,,,0.00,Weather View 32 v70,2013-08-22 05:56:00,
2013-08-22 01:01:00,79.7,69.0,30.05,SE,135,2.0,4.0,70,0.00,,,0.00,Weather View 32 v70,2013-08-22 06:01:00,
2013-08-22 01:11:00,79.5,68.8,30.04,SE,136,2.0,6.0,70,0.00,,,0.00,Weather View 32 v70,2013-08-22 06:11:00,
2013-08-22 01:21:00,79.4,68.7,30.04,SE,136,0.0,6.0,70,0.00,,,0.00,Weather View 32 v70,2013-08-22 06:21:00,
2013-08-22 01:31:00,79.1,68.8,30.04,SE,136,0.0,6.0,71,0.00,,,0.00,Weather View 32 v70,2013-08-22 06:31:00,
2013-08-22 01:36:00,79.0,68.8,30.04,SE,136,0.0,6.0,71,0.00,,,0.00,Weather View 32 v70,2013-08-22 06:36:00,
2013-08-22 01:46:00,78.7,68.9,30.04,SE,136,0.0,6.0,72,0.00,,,0.00,Weather View 32 v70,2013-08-22 06:46:00,
2013-08-22 01:51:00,78.5,68.7,30.04,SE,136,0.0,6.0,72,0.00,,,0.00,Weather View 32 v70,2013-08-22 06:51:00,
2013-08-22 01:56:00,78.4,68.6,30.05,SE,136,0.0,6.0,72,0.00,,,0.00,Weather View 32 v70,2013-08-22 06:56:00,
2013-08-22 02:01:00,78.4,69.0,30.05,SE,136,0.0,6.0,73,0.00,,,0.00,Weather View 32 v70,2013-08-22 07:01:00,
2013-08-22 02:11:00,78.2,68.8,30.05,SE,136,0.0,6.0,73,0.00,,,0.00,Weather View 32 v70,2013-08-22 07:11:00,
2013-08-22 02:21:00,78.0,68.6,30.05,SE,136,0.0,6.0,73,0.00,,,0.00,Weather View 32 v70,2013-08-22 07:21:00,
2013-08-22 02:26:00,77.9,68.9,30.06,SE,137,0.0,6.0,74,0.00,,,0.00,Weather View 32 v70,2013-08-22 07:26:00,
2013-08-22 02:36:00,77.8,68.8,30.06,SE,136,0.0,3.0,74,0.00,,,0.00,Weather View 32 v70,2013-08-22 07:36:00,
2013-08-22 02:41:00,77.8,68.8,30.06,SE,136,0.0,3.0,74,0.00,,,0.00,Weather View 32 v70,2013-08-22 07:41:00,
2013-08-22 02:48:00,77.7,68.7,30.05,SE,136,3.0,3.0,74,0.00,,,0.00,Weather View 32 v70,2013-08-22 07:48:00,
2013-08-22 02:56:00,77.6,69.0,30.05,SE,137,0.0,4.0,75,0.00,,,0.00,Weather View 32 v70,2013-08-22 07:56:00,
2013-08-22 03:01:00,77.5,68.9,30.05,SE,137,1.0,4.0,75,0.00,,,0.00,Weather View 32 v70,2013-08-22 08:01:00,
2013-08-22 03:11:00,77.3,68.7,30.04,SE,136,0.0,4.0,75,0.00,,,0.00,Weather View 32 v70,2013-08-22 08:11:00,
2013-08-22 03:16:00,77.2,69.0,30.04,SE,136,0.0,4.0,76,0.00,,,0.00,Weather View 32 v70,2013-08-22 08:16:00,
2013-08-22 03:26:00,77.0,68.8,30.04,SE,136,0.0,4.0,76,0.00,,,0.00,Weather View 32 v70,2013-08-22 08:26:00,
2013-08-22 03:36:00,76.7,68.9,30.04,SE,136,0.0,4.0,77,0.00,,,0.00,Weather View 32 v70,2013-08-22 08:36:00,
2013-08-22 03:41:00,76.6,68.8,30.04,SE,136,0.0,4.0,77,0.00,,,0.00,Weather View 32 v70,2013-08-22 08:41:00,
2013-08-22 03:49:00,76.5,68.7,30.04,SE,136,0.0,4.0,77,0.00,,,0.00,Weather View 32 v70,2013-08-22 08:49:00,
2013-08-22 03:56:00,76.3,68.9,30.04,SE,136,0.0,3.0,78,0.00,,,0.00,Weather View 32 v70,2013-08-22 08:56:00,
2013-08-22 04:01:00,76.2,68.8,30.05,SE,136,0.0,3.0,78,0.00,,,0.00,Weather View 32 v70,2013-08-22 09:01:00,
2013-08-22 04:11:00,75.9,68.9,30.04,SE,136,0.0,3.0,79,0.00,,,0.00,Weather View 32 v70,2013-08-22 09:11:00,
2013-08-22 04:16:00,75.8,68.8,30.04,SE,136,0.0,3.0,79,0.00,,,0.00,Weather View 32 v70,2013-08-22 09:16:00,
2013-08-22 04:26:00,75.5,68.9,30.04,SE,136,0.0,3.0,80,0.00,,,0.00,Weather View 32 v70,2013-08-22 09:26:00,
2013-08-22 04:36:00,75.3,68.7,30.04,SE,136,0.0,3.0,80,0.00,,,0.00,Weather View 32 v70,2013-08-22 09:36:00,
2013-08-22 04:41:00,75.2,68.6,30.04,SE,136,0.0,3.0,80,0.00,,,0.00,Weather View 32 v70,2013-08-22 09:41:00,
2013-08-22 04:46:00,75.1,68.8,30.04,SE,136,0.0,3.0,81,0.00,,,0.00,Weather View 32 v70,2013-08-22 09:46:00,
2013-08-22 04:51:00,75.1,68.8,30.04,SE,136,0.0,3.0,81,0.00,,,0.00,Weather View 32 v70,2013-08-22 09:51:00,
2013-08-22 05:01:00,74.9,68.7,30.04,SE,136,0.0,4.0,81,0.00,,,0.00,Weather View 32 v70,2013-08-22 10:01:00,
2013-08-22 05:11:00,74.7,68.8,30.04,SE,136,0.0,4.0,82,0.00,,,0.00,Weather View 32 v70,2013-08-22 10:11:00,
2013-08-22 05:21:00,74.6,68.7,30.04,SE,136,0.0,4.0,82,0.00,,,0.00,Weather View 32 v70,2013-08-22 10:21:00,
2013-08-22 05:26:00,74.5,68.6,30.04,SE,136,2.0,6.0,82,0.00,,,0.00,Weather View 32 v70,2013-08-22 10:26:00,
2013-08-22 05:36:00,74.4,68.5,30.04,SE,137,0.0,6.0,82,0.00,,,0.00,Weather View 32 v70,2013-08-22 10:36:00,
2013-08-22 05:41:00,74.3,68.4,30.04,SE,136,0.0,6.0,82,0.00,,,0.00,Weather View 32 v70,2013-08-22 10:41:00,
2013-08-22 05:50:00,74.3,68.4,30.05,SE,136,0.0,6.0,82,0.00,,,0.00,Weather View 32 v70,2013-08-22 10:50:00,
2013-08-22 07:31:00,74.6,68.4,30.08,SE,142,0.0,7.0,81,0.00,,,0.00,Weather View 32 v70,2013-08-22 12:31:00,
2013-08-22 07:36:00,74.6,68.4,30.08,SE,142,0.0,7.0,81,0.00,,,0.00,Weather View 32 v70,2013-08-22 12:36:00,
2013-08-22 07:46:00,74.9,68.3,30.08,SE,143,0.0,7.0,80,0.00,,,0.00,Weather View 32 v70,2013-08-22 12:46:00,
2013-08-22 07:51:00,75.1,68.5,30.08,SE,143,0.0,7.0,80,0.00,,,0.00,Weather View 32 v70,2013-08-22 12:51:00,
2013-08-22 08:01:00,75.4,68.4,30.09,SE,145,2.0,7.0,79,0.00,,,0.00,Weather View 32 v70,2013-08-22 13:01:00,
2013-08-22 08:11:00,75.7,68.3,30.09,SSE,147,3.0,7.0,78,0.00,,,0.00,Weather View 32 v70,2013-08-22 13:11:00,
2013-08-22 08:16:00,75.9,68.5,30.09,SE,146,0.0,7.0,78,0.00,,,0.00,Weather View 32 v70,2013-08-22 13:16:00,
2013-08-22 08:26:00,76.3,68.5,30.10,SE,146,1.0,7.0,77,0.00,,,0.00,Weather View 32 v70,2013-08-22 13:26:00,
2013-08-22 08:36:00,76.7,68.5,30.09,SSE,153,0.0,8.0,76,0.00,,,0.00,Weather View 32 v70,2013-08-22 13:36:00,
2013-08-22 08:41:00,76.8,68.2,30.09,SSE,156,0.0,8.0,75,0.00,,,0.00,Weather View 32 v70,2013-08-22 13:41:00,
2013-08-22 08:46:00,76.9,68.3,30.09,SSE,158,2.0,8.0,75,0.00,,,0.00,Weather View 32 v70,2013-08-22 13:46:00,
2013-08-22 08:52:00,77.1,68.5,30.10,SSE,158,2.0,8.0,75,0.00,,,0.00,Weather View 32 v70,2013-08-22 13:52:00,
2013-08-22 09:01:00,77.6,68.6,30.09,SSE,162,6.0,8.0,74,0.00,,,0.00,Weather View 32 v70,2013-08-22 14:01:00,
2013-08-22 09:06:00,78.0,69.0,30.09,SSE,162,0.0,8.0,74,0.00,,,0.00,Weather View 32 v70,2013-08-22 14:06:00,
2013-08-22 09:16:00,78.9,69.1,30.09,SSE,163,2.0,8.0,72,0.00,,,0.00,Weather View 32 v70,2013-08-22 14:16:00,
2013-08-22 09:21:00,79.2,68.9,30.09,SSE,157,2.0,8.0,71,0.00,,,0.00,Weather View 32 v70,2013-08-22 14:21:00,
2013-08-22 09:31:00,79.5,69.2,30.09,SSE,166,0.0,9.0,71,0.00,,,0.00,Weather View 32 v70,2013-08-22 14:31:00,
2013-08-22 09:41:00,80.3,69.2,30.09,SSE,160,4.0,9.0,69,0.00,,,0.00,Weather View 32 v70,2013-08-22 14:41:00,
2013-08-22 09:46:00,80.8,69.6,30.09,SSE,160,0.0,9.0,69,0.00,,,0.00,Weather View 32 v70,2013-08-22 14:46:00,
2013-08-22 09:52:00,81.1,69.1,30.10,SSE,159,4.0,10.0,67,0.00,,,0.00,Weather View 32 v70,2013-08-22 14:52:00,
2013-08-22 10:01:00,81.4,69.3,30.10,SE,142,2.0,11.0,67,0.00,,,0.00,Weather View 32 v70,2013-08-22 15:01:00,
2013-08-22 10:06:00,81.6,69.5,30.10,SSE,162,0.0,11.0,67,0.00,,,0.00,Weather View 32 v70,2013-08-22 15:06:00,
2013-08-22 10:16:00,82.1,69.1,30.10,SSE,161,5.0,12.0,65,0.00,,,0.00,Weather View 32 v70,2013-08-22 15:16:00,
2013-08-22 10:21:00,82.1,69.1,30.10,South,172,7.0,12.0,65,0.00,,,0.00,Weather View 32 v70,2013-08-22 15:21:00,
2013-08-22 10:31:00,82.9,69.4,30.09,South,186,3.0,12.0,64,0.00,,,0.00,Weather View 32 v70,2013-08-22 15:31:00,
2013-08-22 10:36:00,83.3,69.8,30.09,SSE,151,6.0,12.0,64,0.00,,,0.00,Weather View 32 v70,2013-08-22 15:36:00,
2013-08-22 10:46:00,84.1,70.1,30.09,South,177,4.0,12.0,63,0.00,,,0.00,Weather View 32 v70,2013-08-22 15:46:00,
2013-08-22 10:53:00,84.2,69.7,30.09,South,183,7.0,12.0,62,0.00,,,0.00,Weather View 32 v70,2013-08-22 15:53:00,
2013-08-22 11:01:00,84.7,70.2,30.09,SSW,192,8.0,13.0,62,0.00,,,0.00,Weather View 32 v70,2013-08-22 16:01:00,
2013-08-22 11:06:00,85.2,70.7,30.09,SSE,154,7.0,13.0,62,0.00,,,0.00,Weather View 32 v70,2013-08-22 16:06:00,
2013-08-22 11:16:00,85.0,70.5,30.09,South,186,0.0,13.0,62,0.00,,,0.00,Weather View 32 v70,2013-08-22 16:16:00,
2013-08-22 11:21:00,85.1,70.6,30.09,South,169,5.0,13.0,62,0.00,,,0.00,Weather View 32 v70,2013-08-22 16:21:00,
2013-08-22 11:31:00,85.4,70.8,30.08,South,177,5.0,13.0,62,0.00,,,0.00,Weather View 32 v70,2013-08-22 16:31:00,
2013-08-22 11:41:00,85.5,70.9,30.08,SSE,164,0.0,13.0,62,0.00,,,0.00,Weather View 32 v70,2013-08-22 16:41:00,
2013-08-22 11:51:00,85.7,71.1,30.08,South,172,1.0,13.0,62,0.00,,,0.00,Weather View 32 v70,2013-08-22 16:51:00,
2013-08-22 11:56:00,86.3,71.7,30.08,South,181,6.0,13.0,62,0.00,,,0.00,Weather View 32 v70,2013-08-22 16:56:00,
2013-08-22 12:06:00,86.5,71.4,30.07,SSE,162,0.0,11.0,61,0.00,,,0.00,Weather View 32 v70,2013-08-22 17:06:00,
2013-08-22 12:11:00,87.0,71.9,30.07,SSE,167,4.0,11.0,61,0.00,,,0.00,Weather View 32 v70,2013-08-22 17:11:00,
2013-08-22 12:21:00,87.0,71.4,30.07,South,170,0.0,11.0,60,0.00,,,0.00,Weather View 32 v70,2013-08-22 17:21:00,
2013-08-22 12:31:00,87.5,71.3,30.06,South,179,0.0,11.0,59,0.00,,,0.00,Weather View 32 v70,2013-08-22 17:31:00,
2013-08-22 12:41:00,87.9,71.7,30.05,South,180,5.0,11.0,59,0.00,,,0.00,Weather View 32 v70,2013-08-22 17:41:00,
2013-08-22 12:46:00,87.8,71.1,30.05,South,184,2.0,11.0,58,0.00,,,0.00,Weather View 32 v70,2013-08-22 17:46:00,
2013-08-22 12:54:00,88.1,71.4,30.05,South,181,0.0,11.0,58,0.00,,,0.00,Weather View 32 v70,2013-08-22 17:54:00,
2013-08-22 13:01:00,88.2,71.5,30.05,South,180,6.0,11.0,58,0.00,,,0.00,Weather View 32 v70,2013-08-22 18:01:00,
2013-08-22 13:06:00,88.7,70.4,30.05,South,180,4.0,10.0,55,0.00,,,0.00,Weather View 32 v70,2013-08-22 18:06:00,
2013-08-22 13:16:00,89.3,70.4,30.05,SSW,193,0.0,10.0,54,0.00,,,0.00,Weather View 32 v70,2013-08-22 18:16:00,
2013-08-22 13:26:00,89.4,70.5,30.05,SSW,195,4.0,10.0,54,0.00,,,0.00,Weather View 32 v70,2013-08-22 18:26:00,
2013-08-22 13:31:00,89.7,70.8,30.05,SSE,160,4.0,10.0,54,0.00,,,0.00,Weather View 32 v70,2013-08-22 18:31:00,
2013-08-22 13:41:00,90.4,70.3,30.04,SSW,193,3.0,10.0,52,0.00,,,0.00,Weather View 32 v70,2013-08-22 18:41:00,
2013-08-22 13:51:00,91.1,70.4,30.04,SSW,198,0.0,10.0,51,0.00,,,0.00,Weather View 32 v70,2013-08-22 18:51:00,
2013-08-22 13:56:00,91.5,69.6,30.04,SSW,199,0.0,10.0,49,0.00,,,0.00,Weather View 32 v70,2013-08-22 18:56:00,
2013-08-22 14:06:00,91.2,69.9,30.04,SSE,165,5.0,11.0,50,0.00,,,0.00,Weather View 32 v70,2013-08-22 19:06:00,
2013-08-22 14:16:00,90.9,69.6,30.03,SE,138,0.0,11.0,50,0.00,,,0.00,Weather View 32 v70,2013-08-22 19:16:00,
2013-08-22 14:26:00,90.9,69.0,30.03,SSE,168,4.0,11.0,49,0.00,,,0.00,Weather View 32 v70,2013-08-22 19:26:00,
2013-08-22 14:36:00,91.7,69.7,30.03,South,183,3.0,11.0,49,0.00,,,0.00,Weather View 32 v70,2013-08-22 19:36:00,
2013-08-22 14:41:00,91.5,68.3,30.03,SSW,196,0.0,11.0,47,0.00,,,0.00,Weather View 32 v70,2013-08-22 19:41:00,
2013-08-22 14:51:00,91.1,69.2,30.03,SSE,148,5.0,11.0,49,0.00,,,0.00,Weather View 32 v70,2013-08-22 19:51:00,
2013-08-22 14:56:00,91.0,69.1,30.02,South,186,0.0,11.0,49,0.00,,,0.00,Weather View 32 v70,2013-08-22 19:56:00,
2013-08-22 15:01:00,91.4,69.5,30.02,SSE,168,0.0,11.0,49,0.00,,,0.00,Weather View 32 v70,2013-08-22 20:01:00,
2013-08-22 15:11:00,91.7,69.7,30.02,South,174,6.0,11.0,49,0.00,,,0.00,Weather View 32 v70,2013-08-22 20:11:00,
2013-08-22 15:21:00,91.9,67.4,30.01,East,91,6.0,11.0,45,0.00,,,0.00,Weather View 32 v70,2013-08-22 20:21:00,
2013-08-22 15:26:00,91.9,66.1,30.01,ESE,116,0.0,11.0,43,0.00,,,0.00,Weather View 32 v70,2013-08-22 20:26:00,
2013-08-22 15:36:00,92.5,66.6,30.01,SE,142,6.0,11.0,43,0.00,,,0.00,Weather View 32 v70,2013-08-22 20:36:00,
2013-08-22 15:46:00,93.3,66.7,30.01,ESE,102,2.0,11.0,42,0.00,,,0.00,Weather View 32 v70,2013-08-22 20:46:00,
2013-08-22 15:51:00,92.7,65.4,30.01,ESE,112,0.0,11.0,41,0.00,,,0.00,Weather View 32 v70,2013-08-22 20:51:00,
2013-08-22 15:56:00,92.7,66.1,30.01,ESE,112,5.0,11.0,42,0.00,,,0.00,Weather View 32 v70,2013-08-22 20:56:00,
2013-08-22 16:06:00,92.9,64.9,30.01,SSE,149,4.0,11.0,40,0.00,,,0.00,Weather View 32 v70,2013-08-22 21:06:00,
2013-08-22 16:16:00,93.0,66.4,30.01,SSW,192,5.0,11.0,42,0.00,,,0.00,Weather View 32 v70,2013-08-22 21:16:00,
2013-08-22 16:26:00,93.1,65.1,30.00,South,187,5.0,11.0,40,0.00,,,0.00,Weather View 32 v70,2013-08-22 21:26:00,
2013-08-22 16:36:00,92.7,68.2,30.00,SE,144,5.0,11.0,45,0.00,,,0.00,Weather View 32 v70,2013-08-22 21:36:00,
2013-08-22 16:46:00,92.6,68.7,30.00,SSE,159,0.0,11.0,46,0.00,,,0.00,Weather View 32 v70,2013-08-22 21:46:00,
2013-08-22 16:56:00,93.0,68.4,30.00,SSW,193,6.0,11.0,45,0.00,,,0.00,Weather View 32 v70,2013-08-22 21:56:00,
2013-08-22 17:06:00,92.0,68.2,30.00,ESE,108,7.0,11.0,46,0.00,,,0.00,Weather View 32 v70,2013-08-22 22:06:00,
2013-08-22 17:16:00,91.5,69.0,29.99,ESE,122,0.0,11.0,48,0.00,,,0.00,Weather View 32 v70,2013-08-22 22:16:00,
2013-08-22 17:26:00,91.8,69.2,29.99,East,82,0.0,11.0,48,0.00,,,0.00,Weather View 32 v70,2013-08-22 22:26:00,
2013-08-22 17:36:00,91.8,68.6,29.99,ESE,106,4.0,10.0,47,0.00,,,0.00,Weather View 32 v70,2013-08-22 22:36:00,
2013-08-22 17:46:00,91.7,69.1,29.99,SE,142,4.0,10.0,48,0.00,,,0.00,Weather View 32 v70,2013-08-22 22:46:00,
2013-08-22 17:56:00,91.9,68.7,29.98,SE,145,5.0,10.0,47,0.00,,,0.00,Weather View 32 v70,2013-08-22 22:56:00,
2013-08-22 18:01:00,91.7,67.9,29.99,ESE,120,7.0,10.0,46,0.00,,,0.00,Weather View 32 v70,2013-08-22 23:01:00,
2013-08-22 18:11:00,91.6,66.5,29.99,ESE,115,5.0,10.0,44,0.00,,,0.00,Weather View 32 v70,2013-08-22 23:11:00,
2013-08-22 18:16:00,91.4,65.0,29.99,ESE,122,4.0,9.0,42,0.00,,,0.00,Weather View 32 v70,2013-08-22 23:16:00,
2013-08-22 18:26:00,91.4,67.0,29.98,SE,127,5.0,9.0,45,0.00,,,0.00,Weather View 32 v70,2013-08-22 23:26:00,
2013-08-22 18:36:00,91.1,67.3,29.98,SE,125,4.0,9.0,46,0.00,,,0.00,Weather View 32 v70,2013-08-22 23:36:00,
2013-08-22 18:41:00,91.0,67.3,29.98,SE,125,3.0,9.0,46,0.00,,,0.00,Weather View 32 v70,2013-08-22 23:41:00,
2013-08-22 18:51:00,90.6,68.1,29.98,SE,131,4.0,9.0,48,0.00,,,0.00,Weather View 32 v70,2013-08-22 23:51:00,
2013-08-22 18:58:00,90.3,66.6,29.98,ESE,109,0.0,9.0,46,0.00,,,0.00,Weather View 32 v70,2013-08-22 23:58:00,
2013-08-22 19:06:00,90.3,66.0,29.98,ESE,114,4.0,9.0,45,0.00,,,0.00,Weather View 32 v70,2013-08-23 00:06:00,
2013-08-22 19:16:00,90.1,67.1,29.98,ESE,116,0.0,8.0,47,0.00,,,0.00,Weather View 32 v70,2013-08-23 00:16:00,
2013-08-22 19:26:00,89.8,68.0,29.98,ESE,116,0.0,8.0,49,0.00,,,0.00,Weather View 32 v70,2013-08-23 00:26:00,
2013-08-22 19:36:00,89.4,68.2,29.98,ESE,116,4.0,8.0,50,0.00,,,0.00,Weather View 32 v70,2013-08-23 00:36:00,
2013-08-22 19:46:00,89.2,68.6,29.98,ESE,116,0.0,8.0,51,0.00,,,0.00,Weather View 32 v70,2013-08-23 00:46:00,
2013-08-22 19:56:00,89.0,69.0,29.98,ESE,116,0.0,8.0,52,0.00,,,0.00,Weather View 32 v70,2013-08-23 00:56:00,
2013-08-22 20:01:00,88.8,69.4,29.98,SSE,147,0.0,8.0,53,0.00,,,0.00,Weather View 32 v70,2013-08-23 01:01:00,
2013-08-22 20:11:00,88.4,69.6,29.99,SE,146,0.0,8.0,54,0.00,,,0.00,Weather View 32 v70,2013-08-23 01:11:00,
2013-08-22 20:21:00,88.1,69.8,29.99,SE,145,0.0,8.0,55,0.00,,,0.00,Weather View 32 v70,2013-08-23 01:21:00,
2013-08-22 20:31:00,87.7,69.5,29.99,SE,145,0.0,7.0,55,0.00,,,0.00,Weather View 32 v70,2013-08-23 01:31:00,
2013-08-22 20:41:00,87.4,69.7,29.99,SE,145,0.0,7.0,56,0.00,,,0.00,Weather View 32 v70,2013-08-23 01:41:00,
2013-08-22 20:46:00,87.3,70.1,29.99,SE,145,0.0,4.0,57,0.00,,,0.00,Weather View 32 v70,2013-08-23 01:46:00,
2013-08-22 20:56:00,87.1,70.0,29.99,SE,145,0.0,4.0,57,0.00,,,0.00,Weather View 32 v70,2013-08-23 01:56:00,
2013-08-22 21:01:00,87.0,70.4,30.00,SE,145,0.0,4.0,58,0.00,,,0.00,Weather View 32 v70,2013-08-23 02:01:00,
2013-08-22 21:11:00,86.7,70.6,30.00,SE,140,3.0,5.0,59,0.00,,,0.00,Weather View 32 v70,2013-08-23 02:11:00,
2013-08-22 21:16:00,86.6,70.5,30.00,SE,139,0.0,5.0,59,0.00,,,0.00,Weather View 32 v70,2013-08-23 02:16:00,
2013-08-22 21:26:00,86.3,70.7,30.00,SE,139,3.0,5.0,60,0.00,,,0.00,Weather View 32 v70,2013-08-23 02:26:00,
2013-08-22 21:31:00,86.1,70.5,30.00,SE,137,0.0,5.0,60,0.00,,,0.00,Weather View 32 v70,2013-08-23 02:31:00,
2013-08-22 21:41:00,85.9,71.3,30.01,SE,126,0.0,6.0,62,0.00,,,0.00,Weather View 32 v70,2013-08-23 02:41:00,
2013-08-22 21:51:00,85.5,70.9,30.01,SE,124,0.0,6.0,62,0.00,,,0.00,Weather View 32 v70,2013-08-23 02:51:00,
2013-08-22 21:59:00,85.3,71.2,30.01,SE,124,0.0,6.0,63,0.00,,,0.00,Weather View 32 v70,2013-08-23 02:59:00,
2013-08-22 22:06:00,85.0,71.4,30.01,ESE,108,1.0,8.0,64,0.00,,,0.00,Weather View 32 v70,2013-08-23 03:06:00,
2013-08-22 22:16:00,84.8,71.2,30.01,ESE,108,0.0,8.0,64,0.00,,,0.00,Weather View 32 v70,2013-08-23 03:16:00,
2013-08-22 22:26:00,84.6,71.5,30.02,ESE,108,2.0,8.0,65,0.00,,,0.00,Weather View 32 v70,2013-08-23 03:26:00,
2013-08-22 22:36:00,84.3,71.7,30.02,ESE,108,4.0,8.0,66,0.00,,,0.00,Weather View 32 v70,2013-08-23 03:36:00,
2013-08-22 22:41:00,84.2,71.6,30.02,ESE,106,0.0,8.0,66,0.00,,,0.00,Weather View 32 v70,2013-08-23 03:41:00,
2013-08-22 22:51:00,83.9,71.3,30.02,ESE,107,0.0,8.0,66,0.00,,,0.00,Weather View 32 v70,2013-08-23 03:51:00,
2013-08-22 23:00:00,83.7,71.1,30.02,ESE,106,0.0,8.0,66,0.00,,,0.00,Weather View 32 v70,2013-08-23 04:00:00,
2013-08-22 23:01:00,83.5,71.3,30.02,ESE,107,0.0,8.0,67,0.00,,,0.00,Weather View 32 v70,2013-08-23 04:01:00,
2013-08-22 23:06:00,83.3,71.6,30.02,ESE,107,0.0,8.0,68,0.00,,,0.00,Weather View 32 v70,2013-08-23 04:06:00,
2013-08-22 23:11:00,83.1,71.4,30.02,ESE,107,0.0,8.0,68,0.00,,,0.00,Weather View 32 v70,2013-08-23 04:11:00,
2013-08-22 23:21:00,82.9,71.6,30.02,ESE,107,0.0,8.0,69,0.00,,,0.00,Weather View 32 v70,2013-08-23 04:21:00,
2013-08-22 23:31:00,82.7,71.4,30.02,ESE,108,4.0,8.0,69,0.00,,,0.00,Weather View 32 v70,2013-08-23 04:31:00,
2013-08-22 23:41:00,82.6,71.4,30.02,ESE,108,4.0,7.0,69,0.00,,,0.00,Weather View 32 v70,2013-08-23 04:41:00,
2013-08-22 23:51:00,82.4,71.2,30.02,ESE,108,2.0,7.0,69,0.00,,,0.00,Weather View 32 v70,2013-08-23 04:51:00,
2013-08-22 23:56:00,82.3,71.1,30.02,ESE,108,3.0,7.0,69,0.00,,,0.00,Weather View 32 v70,2013-08-23 04:56:00,